DW0452 Weather Reports


time (UTC)temp
C
wind
direction
speed
KPH
gust
KPH
rain 1hr
cm
rain 24hr
cm
rain mn
cm
humidity
%
barometer
mb
20260503211847 12 295 0.0 0.0 0.00 0.00 0.00 63 1008.8
20260503211502 12 299 0.0 0.0 0.00 0.00 0.00 67 1009.5
20260503211343 12 300 0.0 0.0 0.00 0.00 0.00 64 1008.8
20260503210909 12 301 0.0 0.0 0.00 0.00 0.00 64 1008.8
20260503210344 12 244 0.0 0.0 0.00 0.00 0.00 63 1009.2
20260503210025 12 293 0.0 0.0 0.00 0.00 0.00 61 1010.0
20260503205841 12 328 0.0 0.0 0.00 0.00 0.00 62 1009.5
20260503205338 12 305 0.0 0.0 0.00 0.00 0.00 61 1009.6
20260503204833 12 280 0.0 0.0 0.00 0.00 0.00 65 1009.6
20260503204548 12 318 0.0 0.0 0.00 0.00 0.00 63 1010.3
20260503204329 13 294 0.0 0.0 0.00 0.00 0.00 63 1009.5
20260503203843 13 306 0.0 0.0 0.00 0.00 0.00 60 1009.5
20260503203339 13 335 0.0 0.0 0.00 0.00 0.00 60 1009.4
20260503203033 12 270 0.0 0.0 0.00 0.00 0.00 60 1010.1
20260503202837 13 305 0.0 0.0 0.00 0.00 0.00 60 1009.4
20260503202334 13 280 0.0 0.0 0.00 0.00 0.00 60 1009.5
20260503201830 13 310 0.0 0.0 0.00 0.00 0.00 60 1009.4
20260503201548 13 320 0.0 0.0 0.00 0.00 0.00 59 1010.1
20260503201348 13 305 0.0 0.0 0.00 0.00 0.00 59 1009.4
20260503200844 13 285 0.0 0.0 0.00 0.00 0.00 59 1009.4
20260503200340 13 312 0.0 0.0 0.00 0.00 0.00 58 1009.6
20260503200019 13 291 0.0 0.0 0.00 0.00 0.00 59 1010.4
20260503195837 13 258 0.0 0.0 0.00 0.00 0.00 59 1009.6
20260503195334 13 260 0.0 0.0 0.00 0.00 0.00 57 1009.6
20260503194829 13 301 0.0 0.0 0.00 0.00 0.00 56 1009.6
20260503194553 13 296 0.0 0.0 0.00 0.00 0.00 57 1010.3
20260503194342 13 302 0.0 0.0 0.00 0.00 0.00 57 1009.6
20260503193840 13 293 0.0 0.0 0.00 0.00 0.00 56 1009.7
20260503193338 13 291 0.0 0.0 0.00 0.00 0.00 57 1009.7
20260503193006 13 316 0.0 0.0 0.00 0.00 0.00 56 1010.5
20260503192904 14 297 0.0 0.0 0.00 0.00 0.00 56 1009.7
20260503192339 14 296 0.0 0.0 0.00 0.00 0.00 54 1009.6
20260503191837 14 312 0.0 0.0 0.00 0.00 0.00 57 1009.8
20260503191518 13 310 0.0 0.0 0.00 0.00 0.00 55 1010.5
20260503191333 13 293 0.0 0.0 0.00 0.00 0.00 55 1009.7
20260503190829 13 284 0.0 0.0 0.00 0.00 0.00 55 1009.8
20260503190345 14 305 0.0 0.0 0.00 0.00 0.00 54 1009.8
20260503190041 13 274 0.0 0.0 0.00 0.00 0.00 53 1010.7
20260503185844 14 299 0.0 0.0 0.00 0.00 0.00 53 1009.8
20260503185340 14 328 0.0 0.0 0.00 0.00 0.00 53 1009.8
20260503184832 14 270 0.0 0.0 0.00 0.00 0.00 50 1009.7
20260503184607 14 241 0.0 0.0 0.00 0.00 0.00 50 1010.5
20260503184348 14 289 0.0 0.0 0.00 0.00 0.00 52 1009.7
20260503183845 14 304 0.0 0.0 0.00 0.00 0.00 51 1009.7
20260503183344 14 250 0.0 0.0 0.00 0.00 0.00 48 1009.5
20260503183035 14 261 0.0 0.0 0.00 0.00 0.00 48 1010.5
20260503182841 15 295 0.0 0.0 0.00 0.00 0.00 47 1009.6
20260503182337 15 281 0.0 0.0 0.00 0.00 0.00 48 1009.6
20260503181854 15 280 0.0 0.0 0.00 0.00 0.00 49 1009.5
20260503181539 15 259 0.0 0.0 0.00 0.00 0.00 51 1010.4
20260503181329 15 313 0.0 0.0 0.00 0.00 0.00 46 1009.6
20260503180845 15 245 0.0 0.0 0.00 0.00 0.00 50 1009.8
20260503180342 15 296 0.0 0.0 0.00 0.00 0.00 49 1009.8
20260503180002 14 284 0.0 0.0 0.00 0.00 0.00 49 1010.7
20260503175835 15 262 0.0 0.0 0.00 0.00 0.00 48 1009.9
20260503175332 15 259 0.0 0.0 0.00 0.00 0.00 54 1010.0
20260503174830 15 278 0.0 0.0 0.00 0.00 0.00 52 1010.0
20260503174534 15 253 0.0 0.0 0.00 0.00 0.00 53 1010.9
20260503174346 15 224 0.0 0.0 0.00 0.00 0.00 58 1010.0
20260503173844 15 266 0.0 0.0 0.00 0.00 0.00 58 1010.2
20260503173410 15 253 0.0 0.0 0.00 0.00 0.00 60 1010.3
20260503173053 15 225 0.0 0.0 0.00 0.00 0.00 59 1011.0
20260503172845 15 248 0.0 0.0 0.00 0.00 0.00 60 1010.3
20260503172341 15 240 0.0 0.0 0.00 0.00 0.00 59 1010.4
20260503171839 15 215 0.0 0.0 0.00 0.00 0.00 60 1010.5
20260503171603 15 291 0.0 0.0 0.00 0.00 0.00 58 1011.3
20260503171403 15 241 0.0 0.0 0.00 0.00 0.00 59 1010.6
20260503170832 15 236 0.0 0.0 0.00 0.00 0.00 58 1010.7
20260503170329 15 293 0.0 0.0 0.00 0.00 0.00 58 1010.7
20260503150850 11 247 0.0 0.0 0.00 0.00 0.00 55 1012.0
20260503150344 11 240 0.0 0.0 0.00 0.00 0.00 53 1012.2
20260503131342 5 276 0.0 0.0 0.00 0.00 0.00 72 1013.5
20260503130835 5 268 0.0 0.0 0.00 0.00 0.00 73 1013.5
20260503130351 5 258 0.0 0.0 0.00 0.00 0.00 75 1013.5
20260503110328 0 297 0.0 0.0 0.00 0.00 0.00 86 1013.3
20260503100104 0 274 0.0 0.0 0.00 0.00 0.00 84 1014.2
20260503090347 2 260 0.0 0.0 0.00 0.00 0.00 82 1013.3
20260503081603 2 252 0.0 0.0 0.00 0.00 0.00 83 1014.7
20260503081331 2 253 0.0 0.0 0.00 0.00 0.00 83 1013.7
20260503080845 2 253 0.0 0.0 0.00 0.00 0.00 83 1013.7
20260503080343 2 253 0.0 0.0 0.00 0.00 0.00 83 1013.7
20260503072834 2 247 0.0 0.0 0.00 0.00 0.00 84 1013.7
20260503072332 2 246 0.0 0.0 0.00 0.00 0.00 84 1013.8
20260503071828 2 242 0.0 0.0 0.00 0.00 0.00 85 1013.7
20260503071527 1 256 0.0 0.0 0.00 0.00 0.00 85 1014.9
20260503071343 1 256 0.0 0.0 0.00 0.00 0.00 85 1013.8
20260503070841 1 257 0.0 0.0 0.00 0.00 0.00 85 1013.7
20260503070358 1 249 0.0 0.0 0.00 0.00 0.00 85 1013.8
20260503060340 0 252 0.0 0.0 0.00 0.00 0.00 80 1014.3
20260503060106 0 251 0.0 0.0 0.00 0.00 0.00 80 1015.5
20260503054847 0 254 0.0 0.0 0.00 0.00 0.00 79 1014.4
20260503054503 0 253 0.0 0.0 0.00 0.00 0.00 78 1015.7
20260503054403 0 251 0.0 0.0 0.00 0.00 0.00 78 1014.5
20260503053851 0 252 0.0 0.0 0.00 0.00 0.00 78 1014.5
20260503053342 0 252 0.0 0.0 0.00 0.00 0.00 77 1014.6
20260503053058 0 248 0.0 0.0 0.00 0.00 0.00 77 1015.7
20260503052837 0 246 0.0 0.0 0.00 0.00 0.00 76 1014.7
20260503052355 0 247 0.0 0.0 0.00 0.00 0.00 76 1014.6
20260503051852 0 247 0.0 0.0 0.00 0.00 0.00 75 1014.8
20260503051542 0 247 0.0 0.0 0.00 0.00 0.00 74 1016.0
20260503051347 0 247 0.0 0.0 0.00 0.00 0.00 74 1014.8
20260503050844 0 247 0.0 0.0 0.00 0.00 0.00 74 1014.9
20260503050342 0 247 0.0 0.0 0.00 0.00 0.00 73 1014.9
20260503050002 0 246 0.0 0.0 0.00 0.00 0.00 73 1016.1
20260503045838 0 297 0.0 0.0 0.00 0.00 0.00 73 1014.9
20260503045332 0 297 0.0 0.0 0.00 0.00 0.00 73 1014.9
20260503044849 0 297 0.0 0.0 0.00 0.00 0.00 72 1014.9
20260503044539 0 297 0.0 0.0 0.00 0.00 0.00 72 1016.2
20260503044346 0 297 0.0 0.0 0.00 0.00 0.00 72 1014.9
20260503043846 0 297 0.0 0.0 0.00 0.00 0.00 72 1014.9
20260503043342 0 297 0.0 0.0 0.00 0.00 0.00 71 1015.0
20260503043114 0 297 0.0 0.0 0.00 0.00 0.00 71 1016.2
20260503042907 0 297 0.0 0.0 0.00 0.00 0.00 72 1014.9
20260503042343 0 297 0.0 0.0 0.00 0.00 0.00 72 1015.0
20260503041842 1 297 0.0 0.0 0.00 0.00 0.00 71 1015.1
20260503041505 0 297 0.0 0.0 0.00 0.00 0.00 70 1016.4
20260503041339 1 297 0.0 0.0 0.00 0.00 0.00 69 1015.1
20260503040834 1 297 0.0 0.0 0.00 0.00 0.00 67 1015.1
20260503040412 1 297 0.0 0.0 0.00 0.00 0.00 66 1015.2
20260503040111 1 297 0.0 0.0 0.00 0.00 0.00 66 1016.4
20260503035837 1 297 0.0 0.0 0.00 0.00 0.00 66 1015.1
20260503035352 1 297 0.0 0.0 0.00 0.00 0.00 66 1015.1
20260503034847 1 297 0.0 0.0 0.00 0.00 0.00 65 1015.1
20260503034526 1 297 0.0 0.0 0.00 0.00 0.00 66 1016.4
20260503034341 1 297 0.0 0.0 0.00 0.00 0.00 66 1015.2
20260503033903 1 297 0.0 0.0 0.00 0.00 0.00 65 1015.2
20260503033356 1 297 0.0 0.0 0.00 0.00 0.00 66 1015.2
20260503033108 1 297 0.0 0.0 0.00 0.00 0.00 65 1016.5
20260503032849 1 297 0.0 0.0 0.00 0.00 0.00 64 1015.3
20260503032408 1 297 0.0 0.0 0.00 0.00 0.00 65 1015.3
20260503031841 1 297 0.0 0.0 0.00 0.00 0.00 64 1015.3
20260503031553 1 297 0.0 0.0 0.00 0.00 0.00 64 1016.4
20260503031336 1 297 0.0 0.0 0.00 0.00 0.00 64 1015.3
20260503030850 1 297 0.0 0.0 0.00 0.00 0.00 65 1015.3
20260503030344 1 297 0.0 0.0 0.00 0.00 0.00 65 1015.3
20260503030005 1 297 0.0 0.0 0.00 0.00 0.00 64 1016.5
20260503025909 1 297 0.0 0.0 0.00 0.00 0.00 64 1015.3
20260503025340 1 297 0.0 0.0 0.00 0.00 0.00 65 1015.3
20260503024837 1 297 0.0 0.0 0.00 0.00 0.00 64 1015.4
20260503024506 1 297 0.0 0.0 0.00 0.00 0.00 63 1016.6
20260503024350 2 297 0.0 0.0 0.00 0.00 0.00 63 1015.5
20260503023842 2 297 0.0 0.0 0.00 0.00 0.00 62 1015.5
20260503023406 2 297 0.0 0.0 0.00 0.00 0.00 62 1015.5
20260503023022 2 297 0.0 0.0 0.00 0.00 0.00 63 1016.7
20260503022839 2 297 0.0 0.0 0.00 0.00 0.00 63 1015.6
20260503022332 2 297 0.0 0.0 0.00 0.00 0.00 62 1015.6
20260503021851 2 297 0.0 0.0 0.00 0.00 0.00 60 1015.7
20260503021532 2 297 0.0 0.0 0.00 0.00 0.00 61 1016.8
20260503021345 2 297 0.0 0.0 0.00 0.00 0.00 60 1015.6
20260503020906 2 297 0.0 0.0 0.00 0.00 0.00 61 1015.7
20260503020340 2 297 0.0 0.0 0.00 0.00 0.00 60 1015.6
20260503020020 2 297 0.0 0.0 0.00 0.00 0.00 59 1016.7
20260503015852 3 297 0.0 0.0 0.00 0.00 0.00 59 1015.6
20260503015343 3 297 0.0 0.0 0.00 0.00 0.00 59 1015.5
20260503014856 3 297 0.0 0.0 0.00 0.00 0.00 59 1015.5
20260503014522 3 297 0.0 0.0 0.00 0.00 0.00 58 1016.8
20260503014350 3 296 0.0 0.0 0.00 0.00 0.00 57 1015.5
20260503013846 3 297 0.0 0.0 0.00 0.00 0.00 57 1015.6
20260503013339 3 297 0.0 0.0 0.00 0.00 0.00 57 1015.5
20260503013048 3 296 0.0 0.0 0.00 0.00 0.00 57 1016.6
20260503012902 3 296 0.0 0.0 0.00 0.00 0.00 56 1015.5
20260503012354 3 295 0.0 0.0 0.00 0.00 0.00 56 1015.5
20260503011846 3 295 0.0 0.0 0.00 0.00 0.00 56 1015.6
20260503011536 3 296 0.0 0.0 0.00 0.00 0.00 56 1016.8
20260503011337 3 297 0.0 0.0 0.00 0.00 0.00 56 1015.5
20260503010830 4 303 0.0 0.0 0.00 0.00 0.00 56 1015.5
20260503010348 4 297 0.0 0.0 0.00 0.00 0.00 55 1015.4
20260503010056 4 294 0.0 0.0 0.00 0.00 0.00 55 1016.6
20260503005847 4 294 0.0 0.0 0.00 0.00 0.00 54 1015.4
20260503005342 4 293 0.0 0.0 0.00 0.00 0.00 54 1015.3
20260503004839 5 293 0.0 0.0 0.00 0.00 0.00 52 1015.3
20260503004520 4 305 0.0 0.0 0.00 0.00 0.00 52 1016.5
20260503004333 5 305 0.0 0.0 0.00 0.00 0.00 52 1015.3
20260503003847 5 305 0.0 0.0 0.00 0.00 0.00 51 1015.3
20260503003341 5 312 0.0 0.0 0.00 0.00 0.00 50 1015.2
20260503003036 5 335 0.0 0.0 0.00 0.00 0.00 49 1016.4
20260503002833 5 341 0.0 0.0 0.00 0.00 0.00 49 1015.2
20260503002343 5 316 0.0 0.0 0.00 0.00 0.00 48 1015.1
20260503001835 5 334 0.0 0.0 0.00 0.00 0.00 48 1015.1
20260503001521 5 314 0.0 0.0 0.00 0.00 0.00 46 1016.2
20260503001346 6 303 0.0 0.0 0.00 0.00 0.00 46 1015.0
20260503000841 6 4 0.0 0.0 0.00 0.00 0.00 45 1015.0
20260503000354 6 335 0.0 0.0 0.00 0.00 0.00 45 1015.1
20260503000017 6 329 0.0 0.0 0.00 0.00 0.00 44 1016.2
20260502235846 6 293 0.0 0.0 0.00 0.00 0.00 44 1015.1
20260502235341 6 326 0.0 0.0 0.00 0.00 0.00 44 1015.0
20260502234834 6 4 0.0 0.0 0.00 0.00 0.00 45 1015.1
20260502234544 6 308 0.0 0.0 0.00 0.00 0.00 45 1016.3
20260502234345 6 341 0.0 0.0 0.00 0.00 0.00 44 1015.1
20260502233839 6 333 0.0 0.0 0.00 0.00 0.00 45 1015.0
20260502233335 6 286 0.0 0.0 0.00 0.00 0.00 44 1015.0
20260502233100 6 310 0.0 0.0 0.00 0.00 0.00 45 1016.2
20260502232848 7 344 0.0 0.0 0.00 0.00 0.00 44 1015.0
20260502232342 7 329 0.0 0.0 0.00 0.00 0.00 46 1015.0
20260502231838 7 325 0.0 0.0 0.00 0.00 0.00 45 1015.0
20260502231525 7 282 0.0 0.0 0.00 0.00 0.00 46 1016.1
20260502231335 7 316 0.0 0.0 0.00 0.00 0.00 46 1015.0
20260502230833 7 336 0.0 0.0 0.00 0.00 0.00 47 1015.1
20260502230349 7 310 0.0 0.0 0.00 0.00 0.00 46 1015.0
20260502230045 6 303 0.0 0.0 0.00 0.00 0.00 50 1016.2
20260502225845 6 306 0.0 0.0 0.00 0.00 0.00 49 1015.0
20260502225343 6 316 0.0 0.0 0.00 0.00 0.00 51 1015.1
20260502224834 6 326 0.0 0.0 0.00 0.00 0.00 50 1015.1
20260502224604 6 267 0.0 0.0 0.00 0.00 0.00 50 1016.3
20260502224332 6 295 0.0 0.0 0.00 0.00 0.00 50 1015.0
20260502223851 6 19 0.0 0.0 0.00 0.00 0.00 51 1015.1
20260502223344 6 342 0.0 0.0 0.00 0.00 0.00 50 1015.1
20260502223024 6 303 0.0 0.0 0.00 0.00 0.00 52 1016.3
20260502222905 6 299 0.0 0.0 0.00 0.00 0.00 53 1015.2
20260502222339 6 319 0.0 0.0 0.00 0.00 0.00 54 1015.1
20260502221832 6 347 0.0 0.0 0.00 0.00 0.00 56 1015.1
20260502221603 6 343 0.0 0.0 0.00 0.00 0.00 56 1016.2
20260502221330 6 39 0.0 0.0 0.00 0.00 0.00 55 1015.1
20260502220848 6 354 0.0 0.0 0.00 0.00 0.00 56 1015.1
20260502220342 6 62 0.0 0.0 0.00 0.00 0.00 58 1015.1
20260502220032 6 299 0.0 0.0 0.00 0.00 0.00 56 1016.4
20260502215842 6 81 0.0 0.0 0.00 0.00 0.00 56 1015.1
20260502215338 6 333 0.0 0.0 0.00 0.00 0.00 58 1015.2
20260502214834 6 50 0.0 0.0 0.00 0.00 0.00 58 1015.2
20260502214553 6 346 0.0 0.0 0.00 0.00 0.00 59 1016.4
20260502214333 6 340 0.0 0.0 0.00 0.00 0.00 59 1015.2
20260502213848 6 326 0.0 0.0 0.00 0.00 0.00 60 1015.2
20260502213346 6 302 0.0 0.0 0.00 0.00 0.00 61 1015.2
20260502213013 6 354 0.0 0.0 0.00 0.00 0.00 61 1016.4
20260502212843 6 51 0.0 0.0 0.00 0.00 0.00 61 1015.2
20260502212339 6 25 0.0 0.0 0.00 0.00 0.00 62 1015.3